Шортанды

Казахстан     51°41′52″N   70°59′51″E
темп.,
°C
ветер,
м/с
пор.,
м/с
влажн.,
%
обл.,
%
осадки,
мм/ч
давл.,
гПа
погр.,
м
1 марта, пн
пн123:00+1зюз81398100 2.5 1006732
02:000юз9159294 0.6 1006853
05:00−1зюз10178596 1.8 1007892
08:00−4зюз7159363 0.0 1008613
11:00−3зюз9128981 0.2 1009891
14:00−4зюз8118695 0.1 1011826
17:00−7зюз6109392 0.2 1013450
20:00−8зюз5894100 0.1 1016406
2 марта, вт
вт223:00−12зюз459795 0.2 101888
02:00−14зюз469798 0.1 1018112
05:00−15юз369799 0.1 1018123
08:00−15юз369689 0.1 1018165
11:00−13юз469491 0.1 1018293
14:00−12юз5793100 0.1 1017398
17:00−13зюз5893100 0.1 1017427
20:00−16зюз51096100 0.1 1018307
3 марта, ср
ср323:00−18зюз5109798 0.1 1019261
02:00−18юз61295100 0.1 1019363
05:00−20юз61398100 0.1 1020288
08:00−19юз71395100 0.0 1019324
11:00−15юз8149199 0.0 1019432
14:00−10юз9149098 0.1 1018599
17:00−7юз8159299 0.2 1017757
20:00−5юз91693100 0.3 1016835
4 марта, чт
чт423:00−4ююз101794100 0.9 1015865
02:00−4юз121991100 0.5 1013893
05:00−4ююз111891100 1.1 1013812
08:00−4ююз111990100 0.2 1012725
11:00−4ююз122093100 0.4 1010826
14:00−2ююз121890100 0.6 10091110
17:00−1юз91496100 1.7 1009929
20:00−3ююз91593100 0.7 1008517
5 марта, пт
пт523:00−3юз61097100 2.0 1008533
02:00−4з51097100 0.3 1008285
05:00−11з599672 0.3 1013149
08:00−15зюз6129239 0.0 1018237
11:00−10юз9168520 0.0 1018468
14:00−7юз1120780 0.0 1018807
17:00−6юз11198118 0.0 1018884
20:00−6юз111888100 0.1 1019916